Location: Diamond Heights Village
(37.7458°N, 122.4416°W)
Time: 22:13:26
(UTC+00:00)

DMSP B5D2-2 - Pass Details

Date: 13 June 2024
Orbit: 786 x 804 km, 98.3° (Epoch: 21 July)

Event Time Altitude Azimuth Distance (km) Brightness Sun altitude
Rises 11:58:01 0° 165° (SSE) 3,295 7.0 -8.9°
Reaches altitude 10° 12:00:20 10° 165° (SSE) 2,371 6.3 -8.5°
Maximum altitude 12:05:35 88° 76° (ENE) 810 4.2 -7.7°
Drops below altitude 10° 12:10:53 10° 348° (NNW) 2,390 6.9 -6.8°
Sets 12:13:14 0° 348° (NNW) 3,324 7.6 -6.5°
